• In Netherlands
  • List of Countries
  • For 7 days
  • Water Temperature
  • Satellite Maps
  • Weather Map
  • Weather Widgets
  • user-avatar
    Login

    Hourly Weather Klagenfurt

    Today, 22 January, Sunday

    Time Temperature Precipitation Wind Pressure Humidity
    00:00 -10°C° 0 mm 1 mps 695 mmHg 91%
    01:00 -10°C° 0 mm 1 mps 695 mmHg 91%
    02:00 -10°C° 0 mm 1 mps 695 mmHg 91%
    03:00 -10°C° 0 mm 1 mps 695 mmHg 91%
    04:00 -10°C° 0 mm 1 mps 694 mmHg 90%
    05:00 -10°C° 0 mm 1 mps 694 mmHg 89%
    06:00 -11°C° 0 mm 1 mps 694 mmHg 88%
    07:00 -11°C° 0 mm 1 mps 694 mmHg 87%
    08:00 -8°C° 0 mm 1 mps 695 mmHg 83%
    09:00 -6°C° 0 mm 1 mps 696 mmHg 79%
    10:00 -2°C° 0 mm 1 mps 696 mmHg 74%
    11:00 -1°C° 0 mm 1 mps 696 mmHg 73%
    12:00 0°C° 0 mm 1 mps 696 mmHg 73%
    13:00 +1°C° 0 mm 1 mps 696 mmHg 72%
    14:00 0°C° 0 mm 1 mps 695 mmHg 77%
    15:00 -1°C° 0 mm 1 mps 695 mmHg 82%
    16:00 -3°C° 0 mm 1 mps 694 mmHg 87%
    17:00 -4°C° 0 mm 1 mps 694 mmHg 89%
    18:00 -7°C° 0 mm 1 mps 694 mmHg 91%
    19:00 -9°C° 0 mm 1 mps 693 mmHg 93%
    20:00 -9°C° 0 mm 1 mps 693 mmHg 93%
    21:00 -9°C° 0 mm 1 mps 693 mmHg 93%
    22:00 -9°C° 0 mm 1 mps 693 mmHg 93%
    23:00 -9°C° 0 mm 1 mps 693 mmHg 93%

    Tomorrow, 23 January, Monday

    Time Temperature Precipitation Wind Pressure Humidity
    00:00 -10°C° 0 mm 1 mps 693 mmHg 93%
    01:00 -10°C° 0 mm 1 mps 692 mmHg 93%
    02:00 -10°C° 0 mm 1 mps 692 mmHg 93%
    03:00 -10°C° 0 mm 1 mps 692 mmHg 92%
    04:00 -11°C° 0 mm 1 mps 691 mmHg 92%
    05:00 -10°C° 0 mm 1 mps 691 mmHg 91%
    06:00 -10°C° 0 mm 1 mps 691 mmHg 89%
    07:00 -10°C° 0 mm 1 mps 691 mmHg 88%
    08:00 -8°C° 0 mm 1 mps 691 mmHg 83%
    09:00 -4°C° 0 mm 1 mps 692 mmHg 78%
    10:00 -2°C° 0 mm 1 mps 692 mmHg 73%
    11:00 0°C° 0 mm 1 mps 692 mmHg 72%
    12:00 +1°C° 0 mm 1 mps 692 mmHg 72%
    13:00 +2°C° 0 mm 1 mps 692 mmHg 72%
    14:00 +1°C° 0 mm 1 mps 691 mmHg 78%
    15:00 0°C° 0 mm 1 mps 691 mmHg 83%
    16:00 -2°C° 0 mm 1 mps 690 mmHg 89%
    17:00 -3°C° 0 mm 1 mps 690 mmHg 91%
    18:00 -6°C° 0 mm 1 mps 689 mmHg 92%
    19:00 -8°C° 0 mm 1 mps 689 mmHg 94%
    20:00 -8°C° 0 mm 1 mps 689 mmHg 93%
    21:00 -7°C° 0 mm 1 mps 689 mmHg 92%
    22:00 -7°C° 0 mm 1 mps 689 mmHg 92%
    23:00 -8°C° 0 mm 1 mps 689 mmHg 92%

    Day after tomorrow, 24 January, Tuesday

    Time Temperature Precipitation Wind Pressure Humidity
    00:00 -8°C° 0 mm 1 mps 689 mmHg 92%
    01:00 -8°C° 0 mm 1 mps 689 mmHg 93%
    02:00 -8°C° 0 mm 1 mps 689 mmHg 92%
    03:00 -9°C° 0 mm 1 mps 689 mmHg 92%
    04:00 -9°C° 0 mm 1 mps 689 mmHg 92%
    05:00 -9°C° 0 mm 1 mps 689 mmHg 92%
    06:00 -9°C° 0 mm 1 mps 689 mmHg 91%
    07:00 -9°C° 0 mm 1 mps 689 mmHg 91%
    08:00 -8°C° 0 mm 1 mps 690 mmHg 87%
    09:00 -6°C° 0 mm 1 mps 690 mmHg 83%
    10:00 -3°C° 0 mm 1 mps 691 mmHg 79%
    11:00 -2°C° 0 mm 1 mps 691 mmHg 78%
    12:00 0°C° 0 mm 1 mps 691 mmHg 76%
    13:00 +1°C° 0 mm 1 mps 691 mmHg 75%
    14:00 0°C° 0 mm 1 mps 691 mmHg 79%
    15:00 -1°C° 0 mm 1 mps 691 mmHg 83%
    16:00 -2°C° 0 mm 1 mps 691 mmHg 88%
    17:00 -3°C° 0 mm 1 mps 691 mmHg 90%
    18:00 -6°C° 0 mm 1 mps 691 mmHg 92%
    19:00 -8°C° 0 mm 2 mps 691 mmHg 94%
    20:00 -8°C° 0 mm 2 mps 692 mmHg 94%
    21:00 -7°C° 0 mm 1 mps 692 mmHg 93%
    22:00 -8°C° 0 mm 1 mps 692 mmHg 93%
    23:00 -8°C° 0 mm 1 mps 692 mmHg 93%

    25 January, Wednesday

    Time Temperature Precipitation Wind Pressure Humidity
    00:00 -9°C° 0 mm 1 mps 692 mmHg 93%
    01:00 -9°C° 0 mm 1 mps 692 mmHg 93%
    02:00 -9°C° 0 mm 1 mps 692 mmHg 92%
    03:00 -9°C° 0 mm 1 mps 692 mmHg 92%
    04:00 -9°C° 0 mm 1 mps 692 mmHg 91%
    05:00 -10°C° 0 mm 1 mps 692 mmHg 91%
    06:00 -10°C° 0 mm 1 mps 693 mmHg 91%
    07:00 -10°C° 0 mm 1 mps 693 mmHg 91%
    08:00 -8°C° 0 mm 1 mps 693 mmHg 86%
    09:00 -6°C° 0 mm 1 mps 694 mmHg 82%
    10:00 -3°C° 0 mm 1 mps 695 mmHg 78%
    11:00 -2°C° 0 mm 1 mps 695 mmHg 76%
    12:00 -1°C° 0 mm 1 mps 695 mmHg 74%
    13:00 0°C° 0 mm 1 mps 695 mmHg 72%
    14:00 0°C° 0 mm 1 mps 695 mmHg 77%
    15:00 -1°C° 0 mm 1 mps 695 mmHg 82%
    16:00 -2°C° 0 mm 1 mps 695 mmHg 86%
    17:00 -3°C° 0 mm 1 mps 695 mmHg 89%
    18:00 -6°C° 0 mm 1 mps 694 mmHg 92%
    19:00 -7°C° 0 mm 1 mps 694 mmHg 94%
    20:00 -7°C° 0 mm 1 mps 695 mmHg 94%
    21:00 -8°C° 0 mm 1 mps 695 mmHg 94%
    22:00 -8°C° 0 mm 1 mps 695 mmHg 94%
    23:00 -8°C° 0 mm 1 mps 695 mmHg 94%

    26 January, Thursday

    Time Temperature Precipitation Wind Pressure Humidity
    00:00 -8°C° 0 mm 1 mps 695 mmHg 93%
    01:00 -8°C° 0 mm 1 mps 695 mmHg 93%
    02:00 -8°C° 0 mm 1 mps 695 mmHg 93%
    03:00 -8°C° 0 mm 1 mps 695 mmHg 92%
    04:00 -8°C° 0 mm 1 mps 695 mmHg 92%
    05:00 -8°C° 0 mm 1 mps 695 mmHg 92%
    06:00 -8°C° 0 mm 1 mps 695 mmHg 92%
    07:00 -8°C° 0 mm 1 mps 695 mmHg 91%
    08:00 -6°C° 0 mm 1 mps 695 mmHg 87%
    09:00 -3°C° 0 mm 1 mps 696 mmHg 82%
    10:00 -1°C° 0 mm 1 mps 697 mmHg 78%
    11:00 0°C° 0 mm 1 mps 697 mmHg 76%
    12:00 +1°C° 0 mm 1 mps 697 mmHg 74%
    13:00 +2°C° 0 mm 1 mps 696 mmHg 72%
    14:00 +1°C° 0 mm 1 mps 696 mmHg 77%
    15:00 0°C° 0 mm 1 mps 696 mmHg 81%
    16:00 -1°C° 0 mm 1 mps 696 mmHg 85%
    17:00 -2°C° 0 mm 1 mps 695 mmHg 87%
    18:00 -4°C° 0 mm 1 mps 695 mmHg 89%
    19:00 -6°C° 0 mm 1 mps 695 mmHg 91%
    20:00 -6°C° 0 mm 1 mps 695 mmHg 90%
    21:00 -7°C° 0 mm 1 mps 695 mmHg 89%
    22:00 -7°C° 0 mm 1 mps 695 mmHg 87%
    23:00 -7°C° 0 mm 1 mps 694 mmHg 87%

    27 January, Friday

    Time Temperature Precipitation Wind Pressure Humidity
    00:00 -7°C° 0 mm 1 mps 694 mmHg 86%
    01:00 -7°C° 0 mm 1 mps 694 mmHg 85%
    02:00 -7°C° 0 mm 1 mps 694 mmHg 84%
    03:00 -8°C° 0 mm 1 mps 693 mmHg 83%
    04:00 -8°C° 0 mm 1 mps 693 mmHg 82%
    05:00 -8°C° 0 mm 1 mps 693 mmHg 81%
    06:00 -8°C° 0 mm 1 mps 693 mmHg 80%
    07:00 -8°C° 0 mm 1 mps 693 mmHg 79%
    08:00 -6°C° 0 mm 1 mps 694 mmHg 74%
    09:00 -2°C° 0 mm 1 mps 694 mmHg 70%
    10:00 0°C° 0 mm 1 mps 695 mmHg 65%
    11:00 +1°C° 0 mm 1 mps 695 mmHg 65%
    12:00 +2°C° 0 mm 1 mps 695 mmHg 65%
    13:00 +3°C° 0 mm 1 mps 695 mmHg 66%
    14:00 +2°C° 0 mm 1 mps 694 mmHg 70%
    15:00 +1°C° 0 mm 1 mps 694 mmHg 74%
    16:00 0°C° 0 mm 1 mps 694 mmHg 79%
    17:00 -1°C° 0 mm 1 mps 694 mmHg 81%
    18:00 -3°C° 0 mm 1 mps 694 mmHg 84%
    19:00 -4°C° 0 mm 1 mps 694 mmHg 86%
    20:00 -6°C° 0 mm 1 mps 694 mmHg 85%
    21:00 -6°C° 0 mm 1 mps 694 mmHg 85%
    22:00 -6°C° 0 mm 1 mps 694 mmHg 84%
    23:00 -6°C° 0 mm 1 mps 694 mmHg 83%
    Show more